Cortland, IL

8:49 PM CST on February 24, 2017 (GMT -0600)
De Kalb Taylor Municipal

Weather History for KDKB - February, 2013

Change the Weather History Date:

Thursday, February 7, 2013

  Actual Average (KARR) Record (KARR)
Temperature  
Mean Temperature 29 °F -  
Max Temperature 32 °F 32 °F 54 °F (2009)
Min Temperature 25 °F 16 °F -17 °F (2007)
Degree Days  
Heating Degree Days 36    
Moisture  
Dew Point 29 °F    
Average Humidity 91    
Maximum Humidity 92    
Minimum Humidity 87    
Precipitation  
Precipitation 0.60 in - - ()
Sea Level Pressure  
Sea Level Pressure 29.96 in    
Wind  
Wind Speed 9 mph (ESE)    
Max Wind Speed 20 mph    
Max Gust Speed 25 mph    
Visibility 2 miles    
Events Rain , Snow    
Averages and records for this station are not official NWS values.
T = Trace of Precipitation, MM = Missing Value Source: NWS Daily Summary

Daily Weather History Graph

Daily Weather History Graph

Search for Another Location

Airport or City:

Trip Planner

Search our weather history database for the weather conditions in past years. The results will help you decide how hot, cold, wet, or windy it might be!

Date:

Astronomy

Feb. 07, 2013 Rise Set
Actual Time 7:00 AM CST 5:18 PM CST
Civil Twilight 6:31 AM CST 5:47 PM CST
Nautical Twilight 5:58 AM CST 6:20 PM CST
Astronomical Twilight 5:25 AM CST 6:52 PM CST
Moon 4:41 AM CST (2/7) 2:41 PM CST (2/7)
Length of Visible Light 11h 15m
Length of Day
10h 17m
Waning Crescent, 9% of the Moon is Illuminated
Feb 7
Waning Crescent
Feb 10
New
Feb 17
First Quarter
Feb 25
Full
Mar 4
Last Quarter

Hourly Weather History & Observations

Time (CST) Temp. Windchill Dew Point Humidity Pressure Visibility Wind Dir Wind Speed Gust Speed Precip Events Conditions
12:15 AM 32.0 °F 22.5 °F 28.4 °F 87% 30.07 in 7.0 mi SE 12.7 mph - N/A   Clear
12:35 AM 31.1 °F 22.4 °F 27.7 °F 87% 30.06 in 7.0 mi SE 10.4 mph - N/A   Clear
12:55 AM 30.6 °F 23.1 °F 27.1 °F 87% 30.07 in 5.0 mi SE 8.1 mph - N/A   Scattered Clouds
1:15 AM 31.1 °F 23.1 °F 27.9 °F 88% 30.07 in 5.0 mi SSE 9.2 mph - N/A   Scattered Clouds
1:35 AM 31.6 °F 23.1 °F 28.4 °F 88% 30.06 in 5.0 mi SE 10.4 mph - N/A   Scattered Clouds
1:55 AM 31.6 °F 22.6 °F 28.4 °F 88% 30.06 in 5.0 mi SE 11.5 mph - N/A   Scattered Clouds
2:15 AM 31.6 °F 22.6 °F 28.4 °F 88% 30.06 in 5.0 mi SE 11.5 mph - N/A   Mostly Cloudy
2:35 AM 31.6 °F 22.6 °F 28.4 °F 88% 30.06 in 5.0 mi SSE 11.5 mph - N/A   Overcast
2:55 AM 31.6 °F 22.6 °F 28.8 °F 89% 30.05 in 4.0 mi SSE 11.5 mph - N/A   Overcast
3:15 AM 31.6 °F 22.1 °F 28.9 °F 90% 30.04 in 4.0 mi SE 12.7 mph - N/A   Overcast
3:35 AM 32.0 °F 22.1 °F 28.4 °F 87% 30.04 in 4.0 mi SE 13.8 mph - N/A   Overcast
3:55 AM 31.6 °F 22.1 °F 29.1 °F 90% 30.04 in 3.0 mi SE 12.7 mph - 0.01 in   Overcast
4:15 AM 31.6 °F 22.6 °F 29.1 °F 90% 30.03 in 3.0 mi SE 11.5 mph - N/A   Overcast
4:35 AM 31.6 °F 23.7 °F 29.3 °F 91% 30.03 in 3.0 mi SE 9.2 mph - 0.01 in   Overcast
4:55 AM 31.6 °F 22.6 °F 29.3 °F 91% 30.03 in 2.5 mi SSE 11.5 mph - 0.02 in   Overcast
5:15 AM 31.6 °F 23.1 °F 29.3 °F 91% 30.03 in 2.5 mi SSE 10.4 mph - 0.01 in Snow Light Snow
5:35 AM 31.6 °F 23.7 °F 29.3 °F 91% 30.03 in 2.5 mi SE 9.2 mph - 0.02 in   Overcast
5:55 AM 31.6 °F 23.1 °F 29.3 °F 91% 30.02 in 2.5 mi SSE 10.4 mph - 0.02 in   Overcast
6:15 AM 31.6 °F 24.4 °F 29.3 °F 91% 30.02 in 2.5 mi SE 8.1 mph - N/A   Overcast
6:35 AM 31.6 °F 24.4 °F 29.3 °F 91% 30.01 in 2.0 mi SE 8.1 mph - 0.01 in   Overcast
6:55 AM 31.6 °F 24.4 °F 29.3 °F 91% 30.01 in 2.5 mi SE 8.1 mph - 0.02 in   Overcast
7:15 AM 31.6 °F 23.7 °F 29.3 °F 91% 30.01 in 1.5 mi SE 9.2 mph - N/A   Overcast
7:35 AM 31.6 °F 24.4 °F 29.3 °F 91% 30.01 in 1.2 mi SE 8.1 mph - N/A   Overcast
7:55 AM 31.6 °F 24.4 °F 29.3 °F 91% 30.00 in 1.5 mi SE 8.1 mph - N/A   Overcast
8:15 AM 31.6 °F 24.4 °F 29.3 °F 91% 30.00 in 1.2 mi SE 8.1 mph - N/A   Overcast
8:35 AM 31.6 °F 24.4 °F 29.3 °F 91% 30.00 in 1.5 mi SE 8.1 mph - N/A   Overcast
8:55 AM 31.6 °F 24.4 °F 29.3 °F 91% 29.99 in 1.5 mi SE 8.1 mph - N/A   Overcast
9:15 AM 31.6 °F 25.1 °F 29.3 °F 91% 29.99 in 1.5 mi SE 6.9 mph - N/A   Overcast
9:35 AM 31.6 °F 26.0 °F 29.3 °F 91% 29.98 in 1.2 mi SE 5.8 mph - N/A   Overcast
9:55 AM 31.6 °F 25.1 °F 29.3 °F 91% 29.98 in 1.2 mi SE 6.9 mph - 0.01 in   Overcast
10:15 AM 31.6 °F 27.0 °F 29.3 °F 91% 29.98 in 1.2 mi SE 4.6 mph - 0.02 in   Overcast
10:35 AM 31.6 °F 25.1 °F 29.5 °F 92% 29.98 in 1.0 mi SE 6.9 mph - 0.03 in   Overcast
10:55 AM 31.6 °F 26.0 °F 29.7 °F 92% 29.98 in 1.0 mi SE 5.8 mph - 0.04 in   Overcast
11:15 AM 31.6 °F 27.0 °F 29.7 °F 92% 29.97 in 1.0 mi SE 4.6 mph - 0.01 in   Overcast
11:35 AM 31.6 °F 28.3 °F 29.7 °F 92% 29.96 in 1.0 mi ESE 3.5 mph - 0.04 in   Overcast
11:55 AM 31.6 °F 28.3 °F 29.7 °F 92% 29.95 in 1.0 mi SE 3.5 mph - 0.06 in   Overcast
12:15 PM 31.8 °F 27.3 °F 29.7 °F 92% 29.93 in 1.0 mi ESE 4.6 mph - 0.02 in   Overcast
12:35 PM 31.8 °F 27.3 °F 29.7 °F 92% 29.92 in 0.8 mi ESE 4.6 mph - 0.04 in   Overcast
12:55 PM 31.8 °F 28.5 °F 29.8 °F 92% 29.91 in 0.8 mi ESE 3.5 mph - 0.07 in Rain Light Freezing Rain
1:15 PM 32.0 °F 28.7 °F 29.8 °F 92% 29.90 in 0.8 mi East 3.5 mph - 0.02 in Rain Light Rain
1:35 PM 32.0 °F 27.5 °F 29.8 °F 92% 29.89 in 0.8 mi East 4.6 mph - 0.05 in Rain Rain
1:55 PM 32.0 °F 28.7 °F 29.8 °F 92% 29.89 in 0.8 mi East 3.5 mph - 0.07 in Snow Light Snow
2:15 PM 31.8 °F 28.5 °F 29.7 °F 92% 29.87 in 0.5 mi East 3.5 mph - N/A Snow Light Snow
2:35 PM 31.8 °F 27.3 °F 29.8 °F 92% 29.87 in 0.5 mi East 4.6 mph - 0.01 in Snow Light Snow
2:55 PM 31.8 °F 27.3 °F 29.8 °F 92% 29.87 in 0.2 mi East 4.6 mph - 0.09 in Snow Light Snow
3:15 PM 31.8 °F 28.5 °F 29.8 °F 92% 29.86 in 0.2 mi East 3.5 mph - N/A Snow Light Snow
3:35 PM 31.8 °F 28.5 °F 29.8 °F 92% 29.86 in 0.2 mi ENE 3.5 mph - 0.01 in Snow Light Snow
3:55 PM 31.8 °F - 29.8 °F 92% 29.86 in 0.2 mi Calm Calm - 0.01 in Snow Snow
4:15 PM 31.6 °F - 29.7 °F 92% 29.85 in 0.2 mi Calm Calm - 0.09 in Snow Light Snow
4:35 PM 31.6 °F 28.3 °F 29.7 °F 92% 29.86 in 0.2 mi North 3.5 mph - 0.10 in Snow Snow
4:55 PM 31.6 °F 28.3 °F 29.7 °F 92% 29.86 in 0.2 mi North 3.5 mph - 0.13 in Snow Light Snow
5:15 PM 31.6 °F 27.0 °F 29.7 °F 92% 29.86 in 0.5 mi NNW 4.6 mph - N/A Snow Light Snow
5:35 PM 31.6 °F 27.0 °F 29.7 °F 92% 29.87 in 0.8 mi NNW 4.6 mph - 0.01 in Snow Light Snow
5:55 PM 31.6 °F 26.0 °F 29.7 °F 92% 29.87 in 1.5 mi NNW 5.8 mph - 0.02 in Snow Light Snow
6:15 PM 31.6 °F 25.1 °F 29.7 °F 92% 29.87 in 1.8 mi North 6.9 mph - N/A Snow Light Snow
6:35 PM 31.6 °F 25.1 °F 29.7 °F 92% 29.88 in 2.0 mi NNW 6.9 mph - N/A Snow Light Snow
6:55 PM 31.6 °F 26.0 °F 29.7 °F 92% 29.89 in 1.8 mi NNW 5.8 mph - N/A Snow Light Snow
7:15 PM 31.6 °F 24.4 °F 29.7 °F 92% 29.89 in 2.0 mi NNW 8.1 mph - N/A Snow Light Snow
7:35 PM 31.6 °F 23.7 °F 29.7 °F 92% 29.89 in 2.0 mi NNW 9.2 mph - N/A Snow Light Snow
7:55 PM 31.6 °F 23.7 °F 29.7 °F 92% 29.89 in 1.2 mi NNW 9.2 mph - N/A Snow Light Snow
8:15 PM 31.6 °F 24.4 °F 29.7 °F 92% 29.90 in 1.8 mi NNW 8.1 mph - N/A Snow Light Snow
8:35 PM 31.6 °F 24.4 °F 29.7 °F 92% 29.91 in 2.0 mi NW 8.1 mph - N/A Snow Light Snow
9:15 PM 30.9 °F 21.2 °F 28.8 °F 92% 29.93 in 2.0 mi NNW 12.7 mph 17.3 mph 0.03 in Snow Light Snow
9:35 PM 30.6 °F 21.2 °F 28.4 °F 92% 29.93 in 1.5 mi NNW 11.5 mph - 0.03 in Snow Light Snow
9:55 PM 30.2 °F 20.8 °F 28.2 °F 92% 29.94 in 1.5 mi NW 11.5 mph 17.3 mph 0.03 in Snow Light Snow
10:15 PM 29.3 °F 19.1 °F 27.1 °F 92% 29.94 in 1.5 mi NNW 12.7 mph 18.4 mph N/A Snow Light Snow
10:35 PM 29.3 °F 18.2 °F 27.1 °F 92% 29.94 in 1.8 mi NNW 15.0 mph 20.7 mph N/A Snow Light Snow
10:55 PM 29.1 °F 17.9 °F 27.1 °F 92% 29.95 in 2.5 mi NNW 15.0 mph 20.7 mph N/A Snow Light Snow
11:15 PM 28.4 °F 16.6 °F 26.2 °F 92% 29.96 in 3.0 mi NNW 16.1 mph 21.9 mph N/A Snow Light Snow
11:35 PM 26.8 °F 13.3 °F 24.6 °F 92% 29.96 in 4.0 mi NNW 19.6 mph 25.3 mph N/A Snow Light Snow
11:55 PM 25.5 °F 13.3 °F 23.0 °F 90% 29.97 in 4.0 mi NNW 15.0 mph 25.3 mph N/A Snow Light Snow